Location: Fort Worth, Tx
(32.7431°N, 97.3695°W)
Time: 10:34:52
(UTC-05:00)

Explorer 11/Cluster Stage 4 - All Passes

Search period start: 29 January 2023 00:00
Search period end: 08 February 2023 00:00
Orbit: 466 x 1244 km, 28.8° (Epoch: 28 January)

Date Brightness Start Highest point End Pass type
(mag) Time Alt. Az. Time Alt. Az. Time Alt. Az.
29 Jan - 05:54:49 10° S 05:59:36 17° SSE 06:04:23 10° ESE visible
29 Jan - 07:40:40 10° SW 07:48:05 39° SSE 07:55:03 10° E visible
29 Jan - 09:29:04 10° WSW 09:36:57 61° S 09:43:44 10° E daylight
29 Jan - 11:18:26 10° W 11:25:46 60° S 11:31:45 10° ESE daylight
29 Jan - 13:08:13 10° W 13:14:01 33° SSW 13:18:48 10° SE daylight
30 Jan - 05:40:50 10° S 05:46:06 19° SSE 05:51:26 10° ESE visible
30 Jan - 07:27:02 10° SW 07:34:36 42° SSE 07:41:50 10° E visible
30 Jan - 09:15:32 10° WSW 09:23:32 63° S 09:30:33 10° E daylight
30 Jan - 11:04:55 10° W 11:12:24 59° S 11:18:36 10° ESE daylight
30 Jan - 12:54:46 10° W 13:00:40 32° SSW 13:05:35 10° SE daylight
31 Jan - 05:26:58 10° SSW 05:32:35 21° SSE 05:38:21 10° ESE visible
31 Jan - 07:13:27 10° SW 07:21:06 46° SSE 07:28:34 10° E visible
31 Jan - 09:02:01 10° WSW 09:10:05 65° S 09:17:19 10° E daylight
31 Jan - 10:51:23 10° W 10:59:00 58° S 11:05:26 10° ESE daylight
31 Jan - 12:41:19 10° W 12:47:17 30° SSW 12:52:20 10° SSE daylight
01 Feb - 05:13:13 10° SSW 05:19:03 24° SSE 05:25:10 10° ESE visible
01 Feb - 06:59:55 10° SW 07:07:36 49° SSE 07:15:14 10° E visible
01 Feb - 08:48:30 10° WSW 08:56:37 66° S 09:04:04 10° E daylight
01 Feb - 10:37:51 10° W 10:45:35 56° SSW 10:52:12 10° ESE daylight
01 Feb - 12:27:53 10° W 12:33:53 28° SSW 12:39:00 10° SSE daylight
02 Feb - 04:59:32 10° SSW 05:05:31 26° SSE 05:11:53 10° E visible
02 Feb - 06:46:25 10° WSW 06:54:03 52° SSE 07:01:51 10° E visible
02 Feb - 08:35:01 10° W 08:43:07 67° S 08:50:45 10° E daylight
02 Feb - 10:24:19 10° W 10:32:07 54° SSW 10:38:56 10° ESE daylight
02 Feb - 12:14:26 10° W 12:20:25 26° SSW 12:25:38 10° SSE daylight
03 Feb - 04:45:55 10° SSW 04:51:58 28° SSE 04:58:33 10° E visible
03 Feb - 06:32:56 10° WSW 06:40:32 54° SSE 06:48:26 10° E visible
03 Feb - 08:21:32 10° W 08:29:37 67° S 08:37:24 10° E daylight
03 Feb - 10:10:48 10° W 10:18:38 52° SSW 10:25:36 10° ESE daylight
03 Feb - 12:01:02 10° W 12:06:56 25° SSW 12:12:10 10° SSE daylight
04 Feb - 04:32:23 10° SSW 04:38:25 30° SSE 04:45:08 10° E visible
04 Feb - 06:19:31 10° WSW 06:27:00 57° SSE 06:34:58 10° E visible
04 Feb - 08:08:04 10° W 08:16:06 67° S 08:24:00 10° ESE daylight
04 Feb - 09:57:18 10° W 10:05:07 50° SSW 10:12:13 10° SE daylight
04 Feb - 11:47:38 10° WSW 11:53:25 23° SSW 11:58:38 10° SSE daylight
05 Feb - 04:18:54 10° SW 04:24:53 32° SSE 04:31:40 10° E visible
05 Feb - 06:06:07 10° WSW 06:13:28 59° SSE 06:21:29 10° E visible
05 Feb - 07:54:38 10° W 08:02:34 67° S 08:10:34 10° ESE visible
05 Feb - 09:43:49 10° W 09:51:34 47° SSW 09:58:47 10° SE daylight
05 Feb - 11:34:17 10° WSW 11:39:52 21° SSW 11:45:00 10° SSE daylight
06 Feb - 02:22:26 10° SSE 02:23:40 11° SE 02:24:56 10° SE night (unlit)
06 Feb - 04:05:28 10° SW 04:11:22 34° SSE 04:18:11 10° E visible
06 Feb - 05:52:45 10° WSW 05:59:56 61° S 06:07:56 10° E visible
06 Feb - 07:41:12 10° W 07:49:01 65° S 07:57:04 10° ESE visible
06 Feb - 09:30:20 10° W 09:37:59 45° SSW 09:45:17 10° SE daylight
06 Feb - 11:21:00 10° WSW 11:26:19 19° SSW 11:31:16 10° S daylight
07 Feb - 02:08:09 10° SSE 02:10:10 12° SE 02:12:18 10° SE night (unlit)
07 Feb - 03:52:04 10° SW 03:57:51 36° SSE 04:04:38 10° E visible
07 Feb - 05:39:24 10° WSW 05:46:24 62° S 05:54:22 10° E visible
07 Feb - 07:27:49 10° W 07:35:28 64° S 07:43:32 10° ESE visible
07 Feb - 09:16:54 10° W 09:24:24 42° SSW 09:31:43 10° SE daylight
07 Feb - 11:07:48 10° WSW 11:12:43 18° SSW 11:17:25 10° S daylight
